PRCPO SSCI-SDXJ

Flight info

Callsign PRCPO
Flight time 0h 37m
Altitude 5500
Route 183336S0542139W 182729S0534403W
Aircraft SR22/L-SDGRY/S

Departure

Time 2026-05-07 20:26
Airport Coxim Airport (SSCI)

Arrival

Time 2026-05-07 21:04
Airport Costa Rica Airport (SDXJ)
Time Latitude Longitude Altitude Speed Heading
2026-05-07 20:14 -18.47370 -54.71626 970 ft 0 kts 290°
2026-05-07 20:20 -18.47370 -54.71627 970 ft 0 kts 307°
2026-05-07 20:20 -18.47360 -54.71629 970 ft 3 kts 358°
2026-05-07 20:21 -18.47335 -54.71614 970 ft 4 kts 77°
2026-05-07 20:21 -18.47345 -54.71561 970 ft 9 kts 107°
2026-05-07 20:21 -18.47373 -54.71484 969 ft 13 kts 108°
2026-05-07 20:21 -18.47418 -54.71407 969 ft 12 kts 173°
2026-05-07 20:22 -18.47532 -54.71422 968 ft 18 kts 189°
2026-05-07 20:22 -18.47665 -54.71444 966 ft 19 kts 189°
2026-05-07 20:22 -18.47801 -54.71465 964 ft 19 kts 192°
2026-05-07 20:22 -18.47940 -54.71488 963 ft 21 kts 188°
2026-05-07 20:23 -18.48093 -54.71513 961 ft 22 kts 189°
2026-05-07 20:23 -18.48240 -54.71536 960 ft 19 kts 188°
2026-05-07 20:23 -18.48338 -54.71536 959 ft 8 kts 189°
2026-05-07 20:23 -18.48326 -54.71549 959 ft 0 kts
2026-05-07 20:24 -18.48324 -54.71549 959 ft 0 kts 10°
2026-05-07 20:25 -18.48297 -54.71545 959 ft 21 kts
2026-05-07 20:25 -18.47942 -54.71485 966 ft 75 kts
2026-05-07 20:25 -18.47415 -54.71386 1219 ft 76 kts 14°
2026-05-07 20:26 -18.47105 -54.70948 1458 ft 89 kts 72°
2026-05-07 20:26 -18.47341 -54.70206 1505 ft 126 kts 120°
2026-05-07 20:26 -18.48012 -54.69514 1630 ft 141 kts 134°
2026-05-07 20:26 -18.48711 -54.68832 1917 ft 135 kts 123°
2026-05-07 20:27 -18.49239 -54.67991 2135 ft 134 kts 111°
2026-05-07 20:27 -18.49676 -54.67177 2498 ft 125 kts 111°
2026-05-07 20:27 -18.50051 -54.66383 2795 ft 118 kts 96°
2026-05-07 20:27 -18.50269 -54.65560 3049 ft 118 kts 93°
2026-05-07 20:28 -18.50480 -54.64709 3314 ft 119 kts 93°
2026-05-07 20:28 -18.50692 -54.63876 3575 ft 119 kts 94°
2026-05-07 20:28 -18.50902 -54.63038 3821 ft 120 kts 93°
2026-05-07 20:28 -18.51107 -54.62192 4068 ft 119 kts 92°
2026-05-07 20:29 -18.51295 -54.61329 4313 ft 120 kts 92°
2026-05-07 20:29 -18.51481 -54.60480 4559 ft 120 kts 91°
2026-05-07 20:29 -18.51670 -54.59629 4795 ft 121 kts 91°
2026-05-07 20:29 -18.51859 -54.58767 5025 ft 122 kts 91°
2026-05-07 20:30 -18.52051 -54.57889 5261 ft 122 kts 92°
2026-05-07 20:30 -18.52242 -54.57023 5490 ft 123 kts 96°
2026-05-07 20:30 -18.52525 -54.56162 5709 ft 126 kts 99°
2026-05-07 20:30 -18.52826 -54.55287 5934 ft 126 kts 99°
2026-05-07 20:31 -18.53118 -54.54421 6149 ft 127 kts 99°
2026-05-07 20:31 -18.53420 -54.53542 6374 ft 127 kts 99°
2026-05-07 20:31 -18.53723 -54.52664 6597 ft 127 kts 99°
2026-05-07 20:31 -18.54025 -54.51787 6817 ft 128 kts 99°
2026-05-07 20:32 -18.54332 -54.50900 7038 ft 128 kts 100°
2026-05-07 20:32 -18.54634 -54.50030 7258 ft 128 kts 99°
2026-05-07 20:32 -18.54942 -54.49120 7377 ft 138 kts 99°
2026-05-07 20:32 -18.55267 -54.48103 7392 ft 153 kts 99°
2026-05-07 20:33 -18.55602 -54.46984 7389 ft 166 kts 99°
2026-05-07 20:33 -18.55947 -54.45797 7384 ft 175 kts 100°
2026-05-07 20:33 -18.56299 -54.44551 7380 ft 181 kts 99°
2026-05-07 20:33 -18.56661 -54.43257 7378 ft 186 kts 100°
2026-05-07 20:34 -18.57024 -54.41928 7381 ft 189 kts 99°
2026-05-07 20:34 -18.57388 -54.40604 7379 ft 190 kts 99°
2026-05-07 20:34 -18.57760 -54.39258 7380 ft 191 kts 100°
2026-05-07 20:34 -18.58129 -54.37904 7377 ft 192 kts 99°
2026-05-07 20:35 -18.58332 -54.36548 7365 ft 182 kts 76°
2026-05-07 20:35 -18.58060 -54.35263 7382 ft 179 kts 68°
2026-05-07 20:35 -18.57712 -54.34003 7382 ft 177 kts 65°
2026-05-07 20:35 -18.57334 -54.32784 7382 ft 177 kts 64°
2026-05-07 20:36 -18.56947 -54.31547 7382 ft 177 kts 65°
2026-05-07 20:36 -18.56553 -54.30314 7384 ft 177 kts 65°
2026-05-07 20:36 -18.56156 -54.29067 7385 ft 177 kts 64°
2026-05-07 20:36 -18.55766 -54.27841 7385 ft 178 kts 65°
2026-05-07 20:37 -18.55376 -54.26609 7385 ft 178 kts 65°
2026-05-07 20:37 -18.54983 -54.25370 7385 ft 178 kts 65°
2026-05-07 20:37 -18.54588 -54.24134 7387 ft 178 kts 65°
2026-05-07 20:37 -18.54198 -54.22893 7386 ft 178 kts 65°
2026-05-07 20:38 -18.53806 -54.21661 7385 ft 178 kts 65°
2026-05-07 20:38 -18.53410 -54.20419 7385 ft 178 kts 64°
2026-05-07 20:38 -18.53017 -54.19179 7381 ft 178 kts 64°
2026-05-07 20:38 -18.52626 -54.17938 7382 ft 178 kts 64°
2026-05-07 20:39 -18.52233 -54.16698 7382 ft 178 kts 64°
2026-05-07 20:39 -18.51834 -54.15446 7381 ft 178 kts 65°
2026-05-07 20:39 -18.51444 -54.14221 7383 ft 178 kts 64°
2026-05-07 20:39 -18.51056 -54.12982 7385 ft 178 kts 65°
2026-05-07 20:40 -18.50665 -54.11751 7387 ft 178 kts 64°
2026-05-07 20:40 -18.50269 -54.10510 7386 ft 178 kts 64°
2026-05-07 20:40 -18.49873 -54.09259 7387 ft 178 kts 64°
2026-05-07 20:40 -18.49481 -54.08017 7387 ft 178 kts 64°
2026-05-07 20:41 -18.49090 -54.06775 7388 ft 178 kts 65°
2026-05-07 20:41 -18.48693 -54.05534 7388 ft 178 kts 64°
2026-05-07 20:41 -18.48303 -54.04306 7391 ft 178 kts 65°
2026-05-07 20:41 -18.47910 -54.03063 7393 ft 178 kts 65°
2026-05-07 20:42 -18.47513 -54.01824 7393 ft 178 kts 65°
2026-05-07 20:42 -18.47117 -54.00590 7391 ft 178 kts 65°
2026-05-07 20:42 -18.46718 -53.99343 7391 ft 178 kts 65°
2026-05-07 20:42 -18.46321 -53.98113 7394 ft 178 kts 64°
2026-05-07 20:43 -18.45919 -53.96860 7396 ft 178 kts 65°
2026-05-07 20:43 -18.45519 -53.95623 7395 ft 178 kts 64°
2026-05-07 20:43 -18.45124 -53.94397 7393 ft 178 kts 64°
2026-05-07 20:43 -18.44731 -53.93161 7399 ft 178 kts 64°
2026-05-07 20:44 -18.44337 -53.91917 7404 ft 178 kts 65°
2026-05-07 20:44 -18.43936 -53.90671 7408 ft 178 kts 65°
2026-05-07 20:44 -18.43543 -53.89448 7409 ft 178 kts 64°
2026-05-07 20:44 -18.43149 -53.88210 7406 ft 178 kts 65°
2026-05-07 20:45 -18.42750 -53.86962 7404 ft 179 kts 65°
2026-05-07 20:45 -18.42349 -53.85721 7406 ft 179 kts 65°
2026-05-07 20:45 -18.41946 -53.84478 7404 ft 179 kts 64°
2026-05-07 20:45 -18.41549 -53.83245 7397 ft 179 kts 64°
2026-05-07 20:46 -18.41148 -53.81997 7395 ft 178 kts 65°
2026-05-07 20:46 -18.40747 -53.80764 7393 ft 178 kts 64°
2026-05-07 20:46 -18.40349 -53.79531 7395 ft 178 kts 65°
2026-05-07 20:46 -18.39947 -53.78303 7396 ft 178 kts 64°
2026-05-07 20:47 -18.39538 -53.77057 7395 ft 178 kts 64°
2026-05-07 20:47 -18.39141 -53.75836 7397 ft 178 kts 64°
2026-05-07 20:47 -18.38733 -53.74592 7398 ft 178 kts 64°
2026-05-07 20:47 -18.38331 -53.73373 7404 ft 178 kts 65°
2026-05-07 20:48 -18.37918 -53.72131 7407 ft 178 kts 64°
2026-05-07 20:48 -18.37510 -53.70900 7414 ft 178 kts 65°
2026-05-07 20:48 -18.37105 -53.69670 7411 ft 178 kts 64°
2026-05-07 20:48 -18.36840 -53.68394 7385 ft 189 kts 88°
2026-05-07 20:49 -18.37128 -53.67007 7283 ft 196 kts 99°
2026-05-07 20:49 -18.37486 -53.65612 7171 ft 198 kts 99°
2026-05-07 20:49 -18.37844 -53.64199 7058 ft 200 kts 98°
2026-05-07 20:49 -18.38193 -53.62776 6941 ft 200 kts 98°
2026-05-07 20:50 -18.38536 -53.61354 6827 ft 201 kts 98°
2026-05-07 20:50 -18.38876 -53.59936 6714 ft 201 kts 98°
2026-05-07 20:50 -18.39214 -53.58516 6604 ft 201 kts 99°
2026-05-07 20:50 -18.39556 -53.57090 6490 ft 201 kts 98°
2026-05-07 20:51 -18.39900 -53.55651 6371 ft 201 kts 98°
2026-05-07 20:51 -18.40240 -53.54227 6249 ft 201 kts 98°
2026-05-07 20:51 -18.40578 -53.52812 6136 ft 202 kts 98°
2026-05-07 20:51 -18.40920 -53.51379 6028 ft 201 kts 98°
2026-05-07 20:52 -18.41265 -53.49935 5914 ft 201 kts 98°
2026-05-07 20:52 -18.41601 -53.48525 5796 ft 201 kts 98°
2026-05-07 20:52 -18.41944 -53.47088 5679 ft 200 kts 98°
2026-05-07 20:52 -18.42281 -53.45674 5565 ft 199 kts 98°
2026-05-07 20:53 -18.42617 -53.44257 5461 ft 197 kts 98°
2026-05-07 20:53 -18.42948 -53.42872 5367 ft 195 kts 98°
2026-05-07 20:53 -18.43277 -53.41484 5272 ft 194 kts 98°
2026-05-07 20:53 -18.43606 -53.40108 5179 ft 194 kts 98°
2026-05-07 20:54 -18.43935 -53.38729 5088 ft 193 kts 98°
2026-05-07 20:54 -18.44261 -53.37356 4996 ft 193 kts 98°
2026-05-07 20:54 -18.44582 -53.35999 4900 ft 192 kts 98°
2026-05-07 20:54 -18.44906 -53.34633 4806 ft 192 kts 97°
2026-05-07 20:55 -18.45235 -53.33254 4712 ft 192 kts 98°
2026-05-07 20:55 -18.45555 -53.31905 4613 ft 192 kts 98°
2026-05-07 20:55 -18.45880 -53.30539 4513 ft 191 kts 98°
2026-05-07 20:55 -18.46202 -53.29184 4418 ft 191 kts 98°
2026-05-07 20:56 -18.46523 -53.27824 4324 ft 191 kts 98°
2026-05-07 20:56 -18.46846 -53.26465 4222 ft 191 kts 98°
2026-05-07 20:56 -18.47168 -53.25113 4130 ft 191 kts 98°
2026-05-07 20:56 -18.47491 -53.23767 4019 ft 184 kts 98°
2026-05-07 20:57 -18.47797 -53.22510 3909 ft 171 kts 98°
2026-05-07 20:57 -18.48079 -53.21337 3802 ft 160 kts 97°
2026-05-07 20:57 -18.48401 -53.20245 3703 ft 156 kts 110°
2026-05-07 20:57 -18.49096 -53.19405 3672 ft 151 kts 136°
2026-05-07 20:58 -18.49903 -53.18716 3590 ft 145 kts 131°
2026-05-07 20:58 -18.50449 -53.17887 3523 ft 133 kts 102°
2026-05-07 20:58 -18.50597 -53.16981 3419 ft 123 kts 79°
2026-05-07 20:58 -18.50607 -53.16137 3499 ft 102 kts 80°
2026-05-07 20:59 -18.50647 -53.15435 3500 ft 93 kts 84°
2026-05-07 20:59 -18.50703 -53.14756 3398 ft 91 kts 80°
2026-05-07 20:59 -18.50477 -53.14230 3241 ft 76 kts 16°
2026-05-07 20:59 -18.49991 -53.14338 3170 ft 73 kts 346°
2026-05-07 21:00 -18.49478 -53.14491 3058 ft 77 kts 349°
2026-05-07 21:00 -18.48973 -53.14687 2942 ft 79 kts 339°
2026-05-07 21:00 -18.48696 -53.15188 2740 ft 97 kts 269°
2026-05-07 21:00 -18.48906 -53.15857 2512 ft 93 kts 267°
2026-05-07 21:01 -18.49065 -53.16553 2433 ft 108 kts 263°
2026-05-07 21:01 -18.49262 -53.17426 2611 ft 122 kts 262°
2026-05-07 21:01 -18.49910 -53.17851 2981 ft 128 kts 167°
2026-05-07 21:01 -18.50456 -53.17181 3031 ft 128 kts 92°
2026-05-07 21:02 -18.50506 -53.16291 3200 ft 113 kts 79°
2026-05-07 21:02 -18.50488 -53.15482 3314 ft 105 kts 77°
2026-05-07 21:02 -18.50254 -53.14834 3238 ft 86 kts 38°
2026-05-07 21:02 -18.49729 -53.14761 3096 ft 77 kts 341°
2026-05-07 21:03 -18.49254 -53.14993 2856 ft 77 kts 341°
2026-05-07 21:03 -18.48880 -53.15404 2682 ft 89 kts 289°
2026-05-07 21:03 -18.48963 -53.16100 2474 ft 102 kts 264°
2026-05-07 21:03 -18.49118 -53.16772 2395 ft 80 kts 261°
2026-05-07 21:04 -18.49225 -53.17241 2383 ft 42 kts 259°
2026-05-07 21:04 -18.49263 -53.17373 2382 ft 11 kts 230°
2026-05-07 21:04 -18.49252 -53.17374 2382 ft 6 kts 86°
2026-05-07 21:04 -18.49241 -53.17309 2382 ft 10 kts 81°
2026-05-07 21:05 -18.49223 -53.17226 2383 ft 12 kts 75°
2026-05-07 21:05 -18.49200 -53.17139 2384 ft 12 kts 76°
2026-05-07 21:05 -18.49183 -53.17048 2385 ft 12 kts 84°
2026-05-07 21:05 -18.49162 -53.16960 2387 ft 12 kts 75°
2026-05-07 21:06 -18.49140 -53.16872 2389 ft 12 kts 75°
2026-05-07 21:06 -18.49120 -53.16787 2391 ft 11 kts 75°
2026-05-07 21:06 -18.49102 -53.16708 2394 ft 10 kts 70°
2026-05-07 21:06 -18.49086 -53.16642 2397 ft 8 kts 76°
2026-05-07 21:07 -18.49073 -53.16582 2400 ft 8 kts 73°
2026-05-07 21:07 -18.49061 -53.16528 2403 ft 7 kts 81°
2026-05-07 21:07 -18.49092 -53.16494 2404 ft 10 kts 168°
2026-05-07 21:07 -18.49134 -53.16510 2402 ft 4 kts 210°
2026-05-07 21:08 -18.49139 -53.16514 2402 ft 0 kts 213°